Flag for Ukraine Weather past 2 weeks in Chernobyl, Ukraine

Now
88 °F

Passing clouds.


Feels Like: 85 °F
Forecast: 63 / 89 °F
Wind: 6 mph from Southeast

Location: Hostomel

Current Time: Jul 28, 2014 at 4:04:16 PM

Latest Report: Jul 28, 2014 at 3:00 PM


Visibility: N/A

Pressure: 30.09 "Hg

Humidity: 29%

Dew point: 52 °F

Location of ChernobylLocation

Historic Weather in Chernobyl — Graph

°F

Chernobyl temperature yesterday

Maximum temperature yesterday: 84 °F (at 2:00 PM)
Minimum temperature yesterday: 59 °F (at 4:00 AM)
Average temperature yesterday: 74 °F

Past Weeks' High & Low Weather Summary

 TemperatureHumidityPressure
High88 °F (Jul 17, 3:00 PM)100% (Jul 22, 12:00 AM)30.15 "Hg (Jul 22, 12:00 AM)
Low57 °F (Jul 22, 3:00 AM)23% (Jul 25, 1:30 PM)29.77 "Hg (Jul 21, 4:00 PM)
Average73 °F60%29.98 "Hg
* Reported Jul 13 2:00 PM — Jul 28 2:00 PM, Chernobyl, Weather by CustomWeather, © 2014

Note: Actual official high and low records may vary slightly from our data, if they occured in-between our weather recording intervals... More about our weather records

Advertising

Chernobyl weather history for previous 24 hours

 ConditionsComfort  
Time TempWeatherWind HumidityBarometerVisibility
2:00 PM
Jul 28
86 °FPassing clouds.6 mph31%30.09 "HgN/A
1:00 PM86 °FPassing clouds.8 mph31%30.09 "HgN/A
12:00 PM86 °FPassing clouds.10 mph31%30.09 "HgN/A
11:00 AM86 °FPassing clouds.8 mph27%30.12 "HgN/A
10:00 AM82 °FSunny.8 mph35%30.12 "Hg10 mi
9:00 AM77 °FSunny.6 mph54%30.12 "Hg10 mi
8:00 AM73 °FPassing clouds.3 mph61%30.12 "HgN/A
7:00 AM68 °FSunny.3 mph73%30.12 "Hg10 mi
6:00 AM64 °FMild.No wind88%30.09 "HgN/A
5:00 AM64 °FMild.1 mph83%30.09 "HgN/A
4:00 AM64 °FMild.1 mph88%30.09 "HgN/A
3:00 AM66 °FMild.3 mph78%30.09 "HgN/A
2:00 AM66 °FMild.1 mph78%30.09 "HgN/A
1:00 AM70 °FMild.3 mph69%30.12 "HgN/A
12:00 AM70 °FMild.No wind64%30.12 "HgN/A
11:00 PM
Jul 27
72 °FMild.No wind61%30.12 "Hg5 mi
10:00 PM73 °FMild.No wind57%30.09 "HgN/A
9:00 PM77 °FWarm.1 mph51%30.09 "HgN/A
8:00 PM82 °FPleasantly warm.3 mph37%30.09 "HgN/A
7:00 PM84 °FPleasantly warm.6 mph33%30.09 "HgN/A
6:00 PM84 °FPleasantly warm.6 mph31%30.09 "HgN/A
5:00 PM84 °FPleasantly warm.3 mph31%30.09 "HgN/A
4:00 PM84 °FPleasantly warm.8 mph29%30.12 "HgN/A
Weather by CustomWeather, © 2014

See weather overviewHow to use our weather pages